377 visiteurs
Prévisions de votre ville :
Vigilance : 58 départements 3 départements le 20/09/20 à 03:02 - Voir la carte - Être alerté(e)

Paris Roissy CDG (95380) le 20/09/20 à 03:30 Choisir station

20°C 78 % E Vit. moyenne 11 km/h

Relevés météo quotidiens pour la station de :

UTC
S: Synop
M: Metar
Loc T°C
(°C)
Td
(°C)
HR
(%)
Vis
(km)
Néb
(octa)
Vent
(km/h)
Pression
(mb)
Précipitations
(mm)
Temps
              MOY
10 min
DIR RAF 1h MESURE VAR SUR 3h    
S 00 h 01h 13.7 6.3 61 - 39 119 1005.7 -0.9/3h 0.0/6h - 0.0/3h -
S 01 h 02h 13.4 6.5 63 - 72 122 1005.6 -0.5/3h 0.0/1h -
S 02 h 03h 13.3 6.2 62 - 59 122 1005.4 -0.5/3h 0.0/1h -
S 03 h 04h 12.4 5.3 62 - 69 119 1005.1 -0.7/3h 0.0/3h -
S 04 h 05h 12.7 2.8 51 - 74 124 1004.7 -1.0/3h 0.0/1h -
S 05 h 06h 12.3 3.2 54 - 78 122 1004.9 -0.6/3h 0.0/1h -
S 06 h 07h 11.9 3.4 56 15 7/8 87 131 1004.9 -0.2/3h 0.0/12h - 0.0/3h - 0.0/24h
S 07 h 08h 11.9 2.9 54 - 70 120 1005.3 +0.6/3h 0.0/1h -
S 08 h 09h 12.3 3.0 53 - 83 137 1004.6 -0.3/3h 0.0/1h -
S 09 h 10h 13.2 1.2 44 15 2/8 39 140 1004.9 0.0/3h 0.0/3h
S 10 h 11h 13.4 1.1 43 - 76 120 1004.7 -0.5/3h 0.0/1h -
S 11 h 12h 13.2 2.7 49 - 76 122 1004.5 0.0/3h 0.0/1h -
S 12 h 13h 12.2 4.2 58 15 4/8 87 139 1002.1 -2.8/3h 0.0/6h - 0.0/3h
S 13 h 14h 11.9 3.9 58 - 44 140 1002.1 -2.7/3h 0.0/1h -
S 14 h 15h 12.1 0.2 44 - 80 130 1002.1 -2.5/3h 0.0/1h -
S 15 h 16h 11.9 -0.6 42 - 80 148 1002.4 +0.3/3h 0.0/3h -
S 16 h 17h 11.4 -1.7 40 - 39 140 1003.5 +1.4/3h 0.0/1h -
S 17 h 18h 10.8 0.2 48 - 69 139 1004.8 +2.6/3h 0.0/1h -
S 18 h 19h 10.6 0.9 51 - 37 126 1006.4 +3.9/3h 0.0/12h - 0.0/3h -
S 19 h 20h 10.7 0.1 48 - 41 126 1007.2 +3.6/3h 0.0/1h -
S 20 h 21h 10.2 -0.6 47 - 80 119 1008.9 +4.0/3h 0.0/1h -
S 21 h 22h 10.2 1.3 54 15 0/8 65 104 1010.1 +3.6/3h 0.0/3h
S 22 h 23h 9.8 0.7 53 - 31 97 1011.0 +3.6/3h 0.0/1h -
S 23 h 00h 9.9 0.2 51 - 52 81 1011.2 +2.2/3h 0.0/1h -
evolution des temperatures
cumul des precipitations
vent moyen et rafales
pression atmospherique

Un tiret (-) signifie que les données ne sont pas disponibles.

Passez la souris sur les pictos temps pour avoir plus de précisions. Passez les flèches sur l'icône de la direction du vent pour voir la direction précise en degrés.

Les données de l'heure en cours sont disponibles à partir de H+15 minutes.


S signifie station Synop, plus complète qu'une station Metar (M). Il y a +1h de différence entre l'heure UTC et l'heure légale en hiver et +2h en été.

Td est la mesure du point de rosée.

HR est l'humidité relative/p>

Vis est la visibilité

Néb est la nébulosité du ciel (couverture nuageuse) exprimée en octas (de 0/8 à 8/8).

Vent moy 10 min donne le vent moyen sur les 10 minutes qui précèdent le relevé.

Vent raf 1h donne la rafale maximale mesurée dans l'heure qui précède le relevé.


Les données les plus anciennes remontent à avril 2014.

Les données présentées sur cette page proviennent des stations météo officielles. Les relevés sont effectués aux normes en vigueur (anémomètre à 10m de haut, thermomètre sous abri normalisé à 2m du sol...)

Météo 60 décline toute responsabilité en cas d'absence de données, d'erreurs, de mauvaise utilisation ou interprétation et n'est pas habilité à fournir des certificats intempéries.